KE5HAM Weather Reports


time (UTC)temp
C
wind
direction
speed
KPH
gust
KPH
rain 1hr
cm
rain 24hr
cm
rain mn
cm
humidity
%
barometer
mb
20260504130504 17 0 0.0 0.0 0.00 0.00 0.00 88 1015.1
20260504110504 15 0 0.0 0.0 0.00 0.00 0.00 86 1014.5
20260504100504 15 0 0.0 0.0 0.00 0.00 0.00 86 1014.9
20260504082004 15 0 0.0 0.0 0.00 0.00 0.00 84 1015.6
20260504081504 15 0 0.0 0.0 0.00 0.00 0.00 84 1015.4
20260504081004 15 0 0.0 0.0 0.00 0.00 0.00 84 1015.3
20260504080504 15 0 0.0 0.0 0.00 0.00 0.00 84 1015.5
20260504050503 16 0 0.0 0.0 0.00 0.00 0.00 81 1017.6
20260504050003 16 0 0.0 0.0 0.00 0.00 0.00 81 1017.7
20260504045503 16 0 0.0 0.0 0.00 0.00 0.00 81 1017.9
20260504045004 16 0 0.0 0.0 0.00 0.00 0.00 81 1018.0
20260504044504 16 0 0.0 0.0 0.00 0.00 0.00 81 1018.1
20260504044003 16 0 0.0 0.0 0.00 0.00 0.00 81 1018.0
20260504043004 16 0 0.0 0.0 0.00 0.00 0.00 80 1018.0
20260504042504 16 0 0.0 0.0 0.00 0.00 0.00 80 1018.0
20260504041503 17 0 0.0 0.0 0.00 0.00 0.00 79 1018.0
20260504041004 17 0 0.0 0.0 0.00 0.00 0.00 79 1018.0
20260504040503 17 0 0.0 0.0 0.00 0.00 0.00 78 1018.0
20260504040004 17 0 0.0 0.0 0.00 0.00 0.00 78 1018.0
20260504035504 17 0 0.0 0.0 0.00 0.00 0.00 78 1017.9
20260504035003 17 0 0.0 0.0 0.00 0.00 0.00 78 1017.9
20260504034503 17 0 0.0 0.0 0.00 0.00 0.00 77 1017.9
20260504034004 17 0 0.0 0.0 0.00 0.00 0.00 77 1017.9
20260504032503 17 0 0.0 0.0 0.00 0.00 0.00 77 1018.0
20260504032004 17 0 0.0 0.0 0.00 0.00 0.00 77 1017.9
20260504031504 17 0 0.0 0.0 0.00 0.00 0.00 77 1017.8
20260504030504 17 0 0.0 0.0 0.00 0.00 0.00 77 1017.9
20260504025503 18 0 0.0 0.0 0.00 0.00 0.00 77 1017.9
20260504025004 18 0 0.0 0.0 0.00 0.00 0.00 76 1017.8
20260504024504 18 0 0.0 0.0 0.00 0.00 0.00 76 1017.6
20260504023504 18 0 0.0 0.0 0.00 0.00 0.00 76 1017.5
20260504023003 18 0 0.0 0.0 0.00 0.00 0.00 75 1017.5
20260504022503 18 0 0.0 0.0 0.00 0.00 0.00 75 1017.4
20260504022004 18 0 0.0 0.0 0.00 0.00 0.00 75 1017.2
20260504021504 18 0 0.0 0.0 0.00 0.00 0.00 75 1017.3
20260504021004 18 0 0.0 0.0 0.00 0.00 0.00 74 1017.3
20260504020504 18 0 0.0 0.0 0.00 0.00 0.00 73 1017.4
20260504015504 18 0 0.0 0.0 0.00 0.00 0.00 73 1017.3
20260504014503 19 0 0.0 0.0 0.00 0.00 0.00 72 1017.3
20260504014004 19 0 0.0 0.0 0.00 0.00 0.00 71 1017.3
20260504013503 19 0 0.0 0.0 0.00 0.00 0.00 71 1017.2
20260504013004 20 0 0.0 0.0 0.00 0.00 0.00 70 1017.2
20260504012504 20 0 0.0 0.0 0.00 0.00 0.00 70 1017.2
20260504012004 20 0 0.0 0.0 0.00 0.00 0.00 70 1017.2
20260504011503 20 0 0.0 0.0 0.00 0.00 0.00 69 1017.3
20260504011004 20 0 0.0 0.0 0.00 0.00 0.00 68 1017.2
20260504010503 21 0 0.0 0.0 0.00 0.00 0.00 67 1017.2
20260504010004 21 0 0.0 0.0 0.00 0.00 0.00 67 1017.2
20260504005504 21 0 0.0 0.0 0.00 0.00 0.00 66 1017.3
20260504005004 21 0 0.0 0.0 0.00 0.00 0.00 66 1017.3
20260504004503 21 0 0.0 0.0 0.00 0.00 0.00 65 1017.2
20260504004003 21 0 0.0 0.0 0.00 0.00 0.00 65 1017.2
20260504003503 22 0 0.0 0.0 0.00 0.00 0.00 65 1017.2
20260504003003 22 0 0.0 0.0 0.00 0.00 0.00 64 1017.2
20260504002504 22 0 0.0 0.0 0.00 0.00 0.00 64 1017.2
20260504002004 22 0 0.0 0.0 0.00 0.00 0.00 63 1017.3
20260504001504 22 0 0.0 0.0 0.00 0.00 0.00 63 1017.3
20260504001004 22 0 0.0 0.0 0.00 0.00 0.00 63 1017.1
20260504000503 22 0 0.0 0.0 0.00 0.00 0.00 62 1017.2
20260504000004 23 0 0.0 0.0 0.00 0.00 0.00 61 1017.4
20260503235503 23 0 0.0 0.0 0.00 0.00 0.00 61 1017.4
20260503235004 23 0 0.0 0.0 0.00 0.00 0.00 61 1017.4
20260503234504 23 0 0.0 0.0 0.00 0.00 0.00 61 1017.4
20260503234003 23 0 0.0 0.0 0.00 0.00 0.00 61 1017.3
20260503233003 23 0 0.0 0.0 0.00 0.00 0.00 60 1017.2
20260503232004 24 0 0.0 0.0 0.00 0.00 0.00 60 1017.4
20260503231004 24 0 0.0 0.0 0.00 0.00 0.00 60 1017.5
20260503230504 24 0 0.0 0.0 0.00 0.00 0.00 60 1017.6
20260503230004 25 0 0.0 0.0 0.00 0.00 0.00 59 1017.6
20260503225503 25 0 0.0 0.0 0.00 0.00 0.00 60 1017.6
20260503225004 25 0 0.0 0.0 0.00 0.00 0.00 60 1017.6
20260503224504 25 0 0.0 0.0 0.00 0.00 0.00 60 1017.5
20260503224004 25 0 0.0 0.0 0.00 0.00 0.00 59 1017.6
20260503223503 25 0 0.0 0.0 0.00 0.00 0.00 61 1017.7
20260503223003 25 0 0.0 0.0 0.00 0.00 0.00 60 1017.8
20260503221504 25 0 0.0 0.0 0.00 0.00 0.00 60 1017.8
20260503221003 25 0 0.0 0.0 0.00 0.00 0.00 61 1017.9
20260503220503 25 0 0.0 0.0 0.00 0.00 0.00 60 1018.0
20260503220003 25 0 0.0 0.0 0.00 0.00 0.00 61 1018.0
20260503215503 25 0 0.0 0.0 0.00 0.00 0.00 61 1018.2
20260503215004 26 0 0.0 0.0 0.00 0.00 0.00 59 1018.1
20260503214503 26 0 0.0 0.0 0.00 0.00 0.00 60 1018.2
20260503214004 26 0 0.0 0.0 0.00 0.00 0.00 59 1018.4
20260503213504 26 0 0.0 0.0 0.00 0.00 0.00 59 1018.4
20260503213004 26 0 0.0 0.0 0.00 0.00 0.00 59 1018.5
20260503212503 26 0 0.0 0.0 0.00 0.00 0.00 59 1018.6
20260503212004 26 0 0.0 0.0 0.00 0.00 0.00 59 1018.7
20260503211503 26 0 0.0 0.0 0.00 0.00 0.00 60 1018.8
20260503211004 26 0 0.0 0.0 0.00 0.00 0.00 60 1018.8
20260503210505 26 0 0.0 0.0 0.00 0.00 0.00 59 1018.8
20260503210004 26 0 0.0 0.0 0.00 0.00 0.00 55 1018.9
20260503205004 26 0 0.0 0.0 0.00 0.00 0.00 57 1019.0
20260503204504 26 0 0.0 0.0 0.00 0.00 0.00 57 1019.1
20260503204003 27 0 0.0 0.0 0.00 0.00 0.00 56 1019.2
20260503203503 27 0 0.0 0.0 0.00 0.00 0.00 54 1019.3
20260503203004 27 0 0.0 0.0 0.00 0.00 0.00 51 1019.4
20260503202504 27 0 0.0 0.0 0.00 0.00 0.00 53 1019.5
20260503202004 27 0 0.0 0.0 0.00 0.00 0.00 52 1019.5
20260503201504 27 0 0.0 0.0 0.00 0.00 0.00 53 1019.6
20260503201004 27 0 0.0 0.0 0.00 0.00 0.00 56 1019.6
20260503200504 27 0 0.0 0.0 0.00 0.00 0.00 53 1019.6
20260503200004 27 0 0.0 0.0 0.00 0.00 0.00 50 1019.8
20260503195503 27 0 0.0 0.0 0.00 0.00 0.00 51 1019.8
20260503194503 27 0 0.0 0.0 0.00 0.00 0.00 49 1020.1
20260503194003 27 0 0.0 0.0 0.00 0.00 0.00 43 1020.2
20260503193504 27 0 0.0 0.0 0.00 0.00 0.00 46 1020.3
20260503193004 27 0 0.0 0.0 0.00 0.00 0.00 48 1020.2
20260503192503 27 0 0.0 0.0 0.00 0.00 0.00 48 1020.4
20260503192004 27 0 0.0 0.0 0.00 0.00 0.00 46 1020.4
20260503191504 27 0 0.0 0.0 0.00 0.00 0.00 47 1020.5
20260503191004 27 0 0.0 0.0 0.00 0.00 0.00 50 1020.6
20260503190504 27 0 0.0 0.0 0.00 0.00 0.00 48 1020.6
20260503190003 27 0 0.0 0.0 0.00 0.00 0.00 47 1020.8
20260503185504 27 0 0.0 0.0 0.00 0.00 0.00 49 1020.9
20260503184504 26 0 0.0 0.0 0.00 0.00 0.00 53 1020.9
20260503184003 26 0 0.0 0.0 0.00 0.00 0.00 47 1021.0
20260503183504 26 0 0.0 0.0 0.00 0.00 0.00 49 1021.1
20260503183004 26 0 0.0 0.0 0.00 0.00 0.00 50 1021.2
20260503182505 26 0 0.0 0.0 0.00 0.00 0.00 52 1021.3
20260503182005 26 0 0.0 0.0 0.00 0.00 0.00 49 1021.5
20260503181504 26 0 0.0 0.0 0.00 0.00 0.00 52 1021.6
20260503180004 26 0 0.0 0.0 0.00 0.00 0.00 50 1021.8
20260503175504 26 0 0.0 0.0 0.00 0.00 0.00 53 1021.8
20260503175004 26 0 0.0 0.0 0.00 0.00 0.00 53 1021.9
20260503174503 26 0 0.0 0.0 0.00 0.00 0.00 51 1022.0
20260503174004 26 0 0.0 0.0 0.00 0.00 0.00 56 1022.1
20260503173504 26 0 0.0 0.0 0.00 0.00 0.00 56 1022.2
20260503173004 26 0 0.0 0.0 0.00 0.00 0.00 56 1022.3
20260503172504 26 0 0.0 0.0 0.00 0.00 0.00 56 1022.4
20260503172003 25 0 0.0 0.0 0.00 0.00 0.00 56 1022.5
20260503171503 25 0 0.0 0.0 0.00 0.00 0.00 55 1022.5
20260503171004 25 0 0.0 0.0 0.00 0.00 0.00 57 1022.5
20260503170504 25 0 0.0 0.0 0.00 0.00 0.00 56 1022.6
20260503151004 22 0 0.0 0.0 0.00 0.00 0.00 74 1022.9
20260503150504 21 0 0.0 0.0 0.00 0.00 0.00 75 1022.8
20260503131003 15 0 0.0 0.0 0.00 0.00 0.00 88 1022.2